Change the Weather History Date:

Saturday, January 18, 2014

  Actual Average Record
Temperature  
Mean Temperature 38 °F 29 °F  
Max Temperature 49 °F 40 °F 63 °F (1975)
Min Temperature 26 °F 17 °F -19 °F (1943)
Degree Days  
Heating Degree Days 27    
Month to date heating degree days 641  
Cooling Degree Days 0    
Month to date cooling degree days 0  
Moisture  
Dew Point 15 °F    
Average Humidity 41    
Maximum Humidity 58    
Minimum Humidity 23    
Precipitation  
Precipitation 0.00 in 0.01 in 0.44 in (1988)
Month to date precipitation 0.09 0.15  
Year to date precipitation 0.09 0.15  
Sea Level Pressure  
Sea Level Pressure 30.14 in    
Wind  
Wind Speed 21 mph (WNW)    
Max Wind Speed 39 mph    
Max Gust Speed 48 mph    
Visibility 10 miles    
Events      
T = Trace of Precipitation, MM = Missing Value Source: NWS Daily Summary

Daily Weather History Graph

Daily Weather History Graph

Search for Another Location

Airport or City:

Trip Planner

Search our weather history database for the weather conditions in past years. The results will help you decide how hot, cold, wet, or windy it might be!

Date:

Astronomy

Jan. 18, 2014 Rise Set
Actual Time 7:11 AM MST 4:55 PM MST
Civil Twilight 6:42 AM MST 5:24 PM MST
Nautical Twilight 6:08 AM MST 5:58 PM MST
Astronomical Twilight 5:36 AM MST 6:30 PM MST
Moon 7:39 PM MST (1/18) 8:12 AM MST (1/18)
Length of Visible Light 10h 42m
Length of Day
9h 43m
Waning Gibbous, 94% of the Moon is Illuminated
Jan 18
Waning Gibbous
Jan 23
Last Quarter
Jan 30
New
Feb 6
First Quarter
Feb 14
Full

Hourly Weather History & Observations

Time (MST) Temp. Windchill Dew Point Humidity Pressure Visibility Wind Dir Wind Speed Gust Speed Precip Events Conditions
12:53 AM 30.9 °F 19.8 °F 16.0 °F 54% 30.05 in 10.0 mi West 16.1 mph - N/A   Clear
1:53 AM 32.0 °F 21.6 °F 16.0 °F 52% 30.05 in 10.0 mi WNW 15.0 mph - N/A   Clear
2:53 AM 36.0 °F 25.0 °F 14.0 °F 41% 30.04 in 10.0 mi WNW 20.7 mph - N/A   Clear
3:53 AM 28.9 °F 16.9 °F 15.1 °F 56% 30.07 in 10.0 mi WNW 17.3 mph - N/A   Clear
4:53 AM 34.0 °F 22.7 °F 14.0 °F 44% 30.06 in 10.0 mi West 19.6 mph - N/A   Clear
5:53 AM 34.0 °F 22.4 °F 14.0 °F 44% 30.09 in 10.0 mi WSW 20.7 mph - N/A   Clear
6:53 AM 36.0 °F 23.9 °F 14.0 °F 41% 30.09 in 10.0 mi NW 25.3 mph 35.7 mph N/A   Clear
7:53 AM 39.9 °F 29.0 °F 14.0 °F 35% 30.11 in 10.0 mi NW 26.5 mph 40.3 mph N/A   Clear
8:53 AM 43.0 °F 32.2 °F 15.1 °F 32% 30.16 in 10.0 mi NW 32.2 mph 39.1 mph N/A   Clear
9:53 AM 44.1 °F 34.4 °F 15.1 °F 31% 30.20 in 10.0 mi NNW 27.6 mph 40.3 mph N/A   Clear
10:53 AM 46.0 °F 36.2 °F 17.1 °F 31% 30.20 in 10.0 mi NNW 33.4 mph 41.4 mph N/A   Clear
11:38 AM 46.9 °F - 18.0 °F 32% 30.17 in 7.0 mi NNW 34.5 mph 46.0 mph N/A   Mostly Cloudy
11:53 AM 48.0 °F - 17.1 °F 29% 30.18 in 9.0 mi NNW 36.8 mph 48.3 mph N/A   Mostly Cloudy
12:05 PM 48.0 °F - 17.1 °F 29% 30.16 in 10.0 mi NNW 34.5 mph 47.2 mph N/A   Scattered Clouds
12:53 PM 48.0 °F - 17.1 °F 29% 30.16 in 10.0 mi NNW 33.4 mph 41.4 mph N/A   Clear
1:53 PM 48.9 °F - 15.1 °F 26% 30.14 in 10.0 mi NNW 32.2 mph 42.6 mph N/A   Clear
2:53 PM 48.9 °F - 12.0 °F 23% 30.14 in 10.0 mi NNW 28.8 mph 38.0 mph N/A   Clear
3:53 PM 46.9 °F - 12.9 °F 25% 30.19 in 10.0 mi NNW 21.9 mph 27.6 mph N/A   Clear
4:53 PM 39.0 °F 31.8 °F 12.9 °F 34% 30.21 in 10.0 mi NW 11.5 mph - N/A   Clear
5:53 PM 34.0 °F 26.0 °F 14.0 °F 44% 30.22 in 10.0 mi NNW 10.4 mph - N/A   Clear
6:53 PM 30.0 °F 23.2 °F 14.0 °F 51% 30.22 in 10.0 mi SW 6.9 mph - N/A   Clear
7:53 PM 32.0 °F 26.4 °F 15.1 °F 50% 30.18 in 10.0 mi South 5.8 mph - N/A   Clear
8:53 PM 33.1 °F 22.6 °F 15.1 °F 48% 30.16 in 10.0 mi SW 16.1 mph - N/A   Clear
9:53 PM 32.0 °F 23.0 °F 15.1 °F 50% 30.14 in 10.0 mi SW 11.5 mph - N/A   Clear
10:53 PM 35.1 °F 25.9 °F 16.0 °F 46% 30.10 in 10.0 mi SW 13.8 mph - N/A   Clear
11:53 PM 37.0 °F 27.4 °F 17.1 °F 44% 30.06 in 10.0 mi SW 17.3 mph 24.2 mph N/A   Clear